Temperature
25 25 24 25 25 25 25 25 25 25 26 26 25 25 25 26 25 25 25 25 24 23 23 22 22 21 21 20 20 19 19 18 18 17 17 17 17 16 16 16 16 16 16 16
25 24 25 26 25 25 25 25 25 25 26 26 25 25 26 26 25 25 25 25 24 24 23 22 22 21 21 20 20 19 19 18 18 18 17 17 17 16 16 16 16 16 16 16
24 25 26 25 25 25 25 25 25 25 26 26 25 24 25 26 26 26 25 25 25 24 23 22 22 21 20 20 20 19 19 18 18 18 17 17 16 16 16 16 16 16 15 15
25 26 26 25 25 25 24 26 25 25 24 24 25 23 25 25 25 25 25 25 25 24 23 22 22 21 20 20 19 19 19 18 18 17 17 17 16 16 16 16 16 15 15 15
24 25 25 24 25 25 25 26 25 25 24 24 25 24 24 25 25 25 25 25 24 24 23 22 21 21 20 20 19 19 19 18 18 17 17 17 16 16 16 16 16 15 15 15
25 26 25 25 25 25 25 25 25 25 24 23 24 24 23 24 25 25 25 24 24 24 23 22 21 21 20 20 19 19 18 18 18 17 17 17 16 16 16 16 15 15 15 15
24 25 25 25 25 25 25 23 22 22 22 23 25 24 24 25 25 25 25 24 23 23 22 22 21 21 20 19 19 18 18 18 18 17 17 17 16 16 16 16 16 15 15 15
23 23 25 25 24 24 24 24 22 21 22 23 25 24 24 25 25 25 24 24 23 22 22 21 21 20 20 19 19 18 18 18 17 17 17 17 16 16 16 16 16 16 15 15
23 23 25 25 25 24 24 24 24 23 23 22 24 24 24 25 24 24 24 23 23 22 21 21 20 20 19 19 18 18 18 17 17 17 17 17 16 16 16 16 16 15 15 15
24 23 24 25 25 24 24 24 23 22 21 21 23 23 22 23 23 24 23 23 22 21 21 20 20 19 19 18 18 18 17 17 17 17 17 16 16 16 16 16 15 15 15 15
23 22 23 24 23 23 24 23 23 22 22 21 21 22 24 23 23 23 23 22 21 21 20 20 19 19 18 18 18 18 17 17 17 17 16 16 16 16 16 15 15 15 15 15
23 22 22 23 24 24 24 23 23 21 21 22 21 21 24 23 23 22 22 21 21 20 20 19 18 18 18 17 17 17 17 17 16 16 16 16 16 16 15 15 15 15 14 14
21 21 20 21 22 23 23 23 23 22 22 21 21 21 24 23 22 22 22 21 20 20 19 19 18 18 17 17 17 16 16 16 16 16 16 16 15 15 15 15 15 14 14 14
20 20 20 20 20 22 22 22 22 22 20 21 21 21 22 22 21 21 21 21 20 19 19 18 18 17 17 17 16 16 16 16 15 15 15 15 15 15 15 15 14 14 14 14
21 20 21 21 22 22 21 22 22 21 21 21 21 21 21 22 21 21 21 20 19 19 18 18 17 17 17 16 16 16 15 15 15 15 15 15 15 14 14 14 14 14 14 14
21 20 20 20 21 21 21 21 21 21 21 21 21 21 22 22 21 21 20 19 19 18 18 17 17 16 16 16 16 15 15 15 15 14 14 14 14 14 14 14 14 13 13 13
20 19 19 19 20 20 20 21 21 21 21 21 20 20 21 20 20 19 19 19 18 18 17 17 16 16 16 15 15 15 15 14 14 14 14 14 14 13 13 13 13 13 13 13
19 19 18 18 19 18 20 21 21 21 20 21 20 20 20 19 19 18 18 18 18 17 17 16 16 15 15 15 15 14 14 14 14 14 14 13 13 13 13 13 13 13 13 12
19 18 18 18 18 19 20 20 20 20 19 20 19 19 19 19 18 18 18 17 17 16 16 16 15 15 15 14 14 14 14 14 14 13 13 13 13 13 13 12 12 12 12 12
19 19 18 17 17 17 18 19 20 19 18 19 19 18 18 18 17 17 17 17 16 16 15 15 15 14 14 14 14 14 13 13 13 13 13 13 12 12 12 12 12 12 11 11
18 18 17 17 17 18 18 18 19 17 17 17 17 17 17 16 16 16 16 16 15 15 15 14 14 14 14 13 13 13 13 13 13 13 13 12 12 12 12 12 11 11 11 11
18 17 17 17 16 16 18 18 17 16 16 16 16 16 16 15 15 15 15 14 14 14 14 13 13 13 13 13 13 13 12 12 12 12 12 12 12 11 11 11 11 11 10 10
18 18 17 17 17 17 17 17 16 16 16 16 15 15 15 15 14 14 14 14 13 13 13 13 12 12 12 12 12 12 12 12 12 12 12 11 11 11 11 10 10 10 10 9
18 18 17 17 17 16 16 15 15 15 15 15 14 14 14 14 14 13 13 13 13 12 12 12 12 12 12 12 12 12 12 12 11 11 11 11 10 10 10 10 10 9 9 9
16 16 16 16 16 16 15 15 14 14 14 14 14 13 13 13 13 12 12 12 12 12 11 11 11 11 11 11 11 11 11 11 11 11 10 10 10 10 9 9 9 9 9 9
16 15 15 15 15 15 15 14 14 13 13 13 13 12 12 12 12 12 12 11 11 11 11 11 11 10 10 11 11 11 10 10 10 10 10 10 9 9 9 8 8 8 8 8
Wind_Speed
8 7 7 6 6 7 8 8 7 6 4 7 7 8 8 10 9 9 8 9 10 10 10 9 9 8 8 7 7 8 8 7 5 3 3 3 2 2 2 2 3 3 3 3
7 8 7 5 7 9 11 9 8 5 5 6 7 8 8 8 9 8 8 8 9 9 11 11 10 9 9 9 8 8 7 7 6 4 3 3 3 2 2 1 2 3 3 3
9 6 6 8 9 10 10 9 7 7 7 8 8 8 8 8 9 8 8 6 7 9 10 10 11 10 9 8 8 7 7 8 7 6 3 3 3 2 2 2 1 2 3 2
7 8 6 7 9 9 9 8 8 9 9 7 7 6 6 7 8 9 8 7 6 6 7 8 9 9 9 8 7 8 8 8 8 7 6 5 4 3 3 3 2 2 2 2
6 6 7 8 7 8 7 8 9 11 10 10 10 7 4 6 7 7 7 7 6 6 7 8 8 9 9 8 7 7 7 8 8 8 7 6 4 4 3 3 3 3 2 2
10 8 7 8 6 7 8 9 10 11 9 10 10 7 3 3 4 5 5 6 5 5 7 7 8 8 7 6 6 6 6 6 7 8 8 7 6 5 4 3 3 3 2 2
10 10 8 7 8 8 9 8 5 5 6 6 7 6 2 3 3 3 4 4 5 5 5 6 8 8 7 7 6 6 7 6 7 8 8 8 7 6 6 5 4 4 3 2
9 8 7 6 7 6 8 8 6 4 5 6 6 4 3 5 6 5 4 5 4 5 5 4 5 6 6 7 7 6 7 7 7 7 7 7 7 5 4 5 4 4 3 3
6 5 4 6 6 8 8 7 8 8 10 9 5 3 2 4 5 5 5 5 4 4 5 5 5 5 5 5 6 6 7 6 7 7 6 6 6 6 5 5 4 3 3 3
8 8 6 6 7 10 10 9 6 6 6 7 5 4 2 4 5 5 5 5 5 4 4 5 5 5 4 4 4 4 4 6 6 6 6 5 5 6 5 5 5 5 4 4
8 8 7 7 8 8 8 9 7 6 6 6 5 2 1 3 4 4 5 6 5 4 4 4 4 4 4 3 3 3 4 4 5 5 5 5 5 5 5 5 5 5 4 4
6 6 9 8 6 7 8 9 7 6 7 6 5 2 2 4 5 6 5 5 4 3 3 4 4 3 4 3 3 3 2 3 3 4 4 5 5 5 5 5 5 5 5 5
5 5 7 6 5 5 7 7 7 7 7 7 6 2 3 4 4 5 4 4 3 3 3 3 3 3 3 3 3 3 2 2 2 2 3 4 4 5 5 5 4 5 5 5
4 7 9 8 7 7 8 8 9 9 8 8 7 5 1 2 3 3 3 3 3 3 3 3 2 2 2 2 2 3 2 1 1 2 3 4 4 4 4 4 4 4 4 4
5 8 11 11 10 11 11 11 10 11 11 10 8 6 3 1 1 1 2 3 3 2 2 2 2 2 2 2 2 2 2 2 1 2 2 3 3 2 3 3 3 4 4 4
7 9 11 12 12 11 13 12 11 11 11 11 9 7 3 2 2 2 1 3 2 2 2 1 1 1 1 1 1 1 2 2 2 1 1 1 2 2 2 3 3 3 3 3
6 8 9 10 9 10 12 9 9 9 8 9 8 5 3 3 3 3 2 2 1 1 1 0 1 1 1 1 1 2 2 2 2 1 1 1 1 2 2 3 3 3 3 3
8 8 5 8 8 10 3 2 4 5 6 4 3 3 3 3 3 3 3 2 1 1 1 1 2 2 2 2 1 1 1 2 2 2 2 1 1 1 2 2 3 3 3 3
9 8 6 6 8 8 5 2 3 4 5 3 2 2 3 4 3 2 3 3 2 1 1 1 1 2 1 2 1 1 1 1 2 2 2 2 1 1 1 2 2 3 3 3
9 8 7 6 7 7 1 2 4 5 4 2 3 3 4 4 4 3 4 3 3 2 2 2 1 1 1 2 1 1 2 2 2 2 2 2 2 1 2 3 2 2 2 2
7 8 9 9 9 5 2 3 3 3 2 6 5 4 5 4 4 4 5 4 3 2 2 3 2 1 2 2 1 1 2 2 2 1 1 2 2 3 3 2 2 1 1 2
6 6 7 7 8 4 3 2 1 3 4 5 6 6 5 5 5 5 5 4 4 3 2 2 2 2 1 1 1 1 2 2 1 1 2 2 2 2 2 2 1 1 1 2
5 4 3 3 2 2 3 4 3 4 4 5 5 5 5 6 5 5 4 3 3 3 2 2 2 2 2 1 1 1 2 2 1 1 1 2 2 1 1 1 1 1 1 1
4 4 5 5 3 1 2 3 4 4 5 5 5 5 5 6 5 5 5 3 2 2 2 2 2 2 2 2 2 1 1 1 1 1 2 2 1 1 1 1 1 1 1 1
5 5 7 8 5 2 2 3 4 5 5 5 4 5 5 5 5 5 5 3 2 2 1 1 2 2 2 2 2 2 2 1 2 2 2 1 1 1 1 1 0 1 1 2
7 7 7 7 5 5 5 4 4 5 5 5 5 5 5 4 5 5 5 3 3 3 2 1 2 2 2 2 2 2 2 2 2 1 1 1 1 2 2 1 1 3 2 2
Wind_Direction
210 224 227 234 245 265 272 266 267 261 236 240 239 234 220 203 205 209 199 193 189 185 180 172 167 163 160 161 160 158 156 153 147 144 137 136 144 143 131 124 121 114 92 88
223 226 233 235 249 258 260 262 265 266 247 255 253 251 232 206 210 205 204 201 194 185 176 170 167 169 171 171 170 163 158 155 149 145 150 156 148 141 132 124 107 126 119 106
238 238 225 239 247 251 258 262 270 277 275 262 259 254 229 206 204 200 205 201 197 187 176 171 172 172 170 172 171 169 164 157 155 153 145 137 123 130 142 150 154 141 131 128
246 244 239 244 251 255 261 264 270 269 268 265 250 261 220 196 195 194 194 189 189 182 172 167 168 169 169 171 171 170 168 163 161 157 157 163 163 174 186 170 172 172 161 150
244 243 243 246 253 261 271 277 267 267 268 270 262 258 231 192 196 184 174 172 175 176 170 169 169 168 168 169 170 173 173 169 166 167 165 173 172 181 179 168 169 176 180 165
248 249 252 255 257 259 265 268 261 254 256 256 252 252 237 201 182 166 162 157 159 159 164 166 162 157 164 160 159 172 176 176 171 171 171 176 175 178 176 176 175 185 183 186
242 236 227 239 250 241 244 253 259 242 231 240 238 237 206 146 132 122 138 142 138 136 146 154 155 156 159 162 167 175 180 182 176 178 182 180 181 185 186 182 188 186 182 183
249 240 216 215 243 252 246 243 252 268 270 275 257 226 160 132 124 116 107 114 115 120 127 127 132 144 156 165 170 178 184 186 183 185 191 185 183 187 184 185 182 184 184 181
278 255 215 213 229 250 255 247 258 271 278 276 254 224 162 134 130 134 128 119 123 122 128 134 128 129 142 157 169 182 186 190 188 188 193 189 184 181 181 186 183 177 174 176
278 281 250 224 229 230 244 266 268 260 276 274 269 251 218 166 150 138 124 118 118 120 119 122 124 130 134 146 163 169 174 186 186 186 192 188 187 184 181 176 180 178 175 176
279 272 259 228 232 242 236 242 255 263 259 269 278 275 96 108 106 99 100 101 105 110 112 113 110 122 131 133 147 159 174 178 184 187 189 189 189 187 184 182 182 178 177 175
273 277 266 251 242 251 253 254 259 267 275 271 269 264 76 77 83 87 82 85 94 103 110 117 120 126 131 137 146 156 175 179 182 186 187 188 186 187 187 188 185 181 182 184
313 274 274 262 232 223 249 253 262 268 271 267 265 243 117 92 80 93 93 93 93 98 103 109 119 126 133 145 151 154 168 171 169 183 187 185 189 189 193 191 188 188 184 186
300 265 263 265 276 278 262 261 264 266 262 268 267 266 312 64 74 78 87 90 100 108 116 112 122 126 133 148 151 154 158 169 171 179 197 197 196 193 194 188 186 189 186 184
266 271 276 276 276 279 274 268 260 259 264 270 279 282 289 337 50 86 87 79 81 88 98 104 106 119 134 151 151 150 160 169 174 189 204 201 192 193 192 186 191 194 193 195
253 269 278 275 270 269 270 261 255 254 262 270 274 277 295 330 11 352 53 73 68 47 67 58 60 73 179 169 157 164 162 168 175 183 191 184 208 193 190 193 195 199 195 196
262 269 281 278 270 272 261 254 245 246 253 265 272 285 339 350 358 355 18 71 77 39 66 14 319 302 284 268 200 187 184 166 166 168 166 180 220 197 196 203 198 203 201 199
268 276 277 280 276 258 254 306 281 258 261 271 276 320 338 343 350 358 340 339 322 329 8 341 310 299 290 296 274 208 179 175 171 175 181 188 215 210 201 207 220 213 206 208
245 255 262 265 271 267 253 278 294 277 273 305 318 331 334 326 307 282 333 337 334 356 337 273 271 279 286 298 276 237 207 193 181 189 192 168 176 207 197 221 235 229 220 216
232 241 250 260 266 268 276 14 340 298 261 353 334 337 333 322 297 301 333 338 337 4 7 3 357 339 307 278 253 230 228 215 209 194 174 156 170 197 217 224 230 250 233 222
230 238 240 254 261 267 352 6 336 283 357 16 8 3 355 339 332 330 339 358 13 15 15 10 357 331 298 288 240 231 250 246 232 194 167 160 185 209 213 210 223 239 238 233
241 244 244 249 255 255 45 38 352 353 9 1 3 6 357 344 338 342 347 354 6 6 6 359 345 325 312 300 258 239 257 265 239 182 170 190 203 219 204 182 204 216 225 240
248 257 273 259 265 22 28 20 17 349 343 345 348 349 342 331 331 338 334 341 352 348 341 345 336 331 341 333 298 259 264 272 255 182 200 214 202 184 175 163 177 203 200 212
282 305 287 276 241 281 347 358 349 333 329 332 333 329 320 319 326 327 321 324 333 338 333 331 326 328 339 336 328 316 321 307 260 228 228 203 181 140 102 134 156 176 194 202
295 296 281 276 279 270 284 307 318 320 323 324 322 315 315 314 314 318 314 318 321 317 305 310 302 308 317 330 345 354 349 316 273 243 228 188 144 138 132 102 91 176 160 159
264 264 265 274 286 289 288 288 301 306 312 317 321 320 314 303 304 310 310 314 314 305 311 298 306 315 324 336 336 350 342 315 294 273 244 150 147 145 144 143 62 51 85 100
Height
1483 1485 1486 1484 1482 1483 1483 1485 1486 1482 1477 1480 1482 1482 1480 1481 1483 1485 1487 1489 1492 1495 1498 1501 1504 1507 1509 1511 1513 1515 1517 1518 1520 1522 1523 1525 1526 1527 1528 1529 1530 1530 1531 1531
1482 1484 1480 1479 1480 1481 1482 1485 1485 1480 1476 1478 1480 1479 1475 1476 1479 1480 1483 1485 1488 1491 1495 1498 1501 1504 1506 1509 1511 1513 1515 1517 1518 1520 1522 1523 1525 1526 1527 1528 1529 1529 1530 1530
1483 1479 1476 1478 1480 1482 1482 1483 1483 1483 1477 1475 1479 1481 1474 1472 1474 1477 1479 1482 1485 1488 1491 1494 1498 1501 1504 1506 1508 1510 1512 1514 1516 1518 1520 1522 1523 1524 1525 1526 1527 1528 1529 1529
1478 1474 1475 1477 1479 1479 1484 1476 1477 1479 1484 1484 1480 1491 1476 1470 1471 1472 1476 1479 1482 1485 1488 1491 1494 1497 1500 1503 1506 1508 1510 1512 1514 1516 1517 1519 1520 1521 1523 1524 1525 1526 1527 1528
1477 1473 1475 1478 1477 1476 1478 1474 1476 1477 1481 1483 1477 1484 1479 1468 1472 1471 1473 1476 1479 1482 1485 1488 1491 1494 1497 1500 1503 1506 1508 1510 1512 1513 1515 1517 1518 1520 1521 1522 1524 1525 1525 1526
1473 1471 1473 1473 1473 1474 1474 1476 1475 1475 1480 1492 1478 1482 1483 1470 1468 1469 1471 1474 1477 1480 1483 1486 1489 1492 1495 1498 1500 1503 1505 1508 1509 1511 1513 1514 1516 1517 1519 1520 1521 1522 1523 1524
1474 1470 1469 1471 1474 1474 1475 1484 1494 1495 1494 1488 1470 1475 1477 1465 1464 1466 1469 1473 1476 1479 1481 1484 1486 1489 1492 1495 1497 1500 1502 1505 1507 1509 1510 1512 1513 1515 1516 1518 1519 1520 1521 1522
1479 1478 1468 1469 1473 1476 1475 1479 1496 1503 1497 1484 1470 1473 1470 1461 1463 1466 1469 1472 1475 1477 1480 1482 1484 1487 1489 1492 1494 1497 1499 1501 1504 1506 1508 1509 1511 1513 1514 1515 1517 1518 1519 1519
1476 1476 1466 1466 1468 1472 1476 1476 1474 1483 1484 1487 1476 1469 1465 1461 1464 1466 1469 1472 1475 1477 1479 1481 1483 1485 1487 1490 1492 1494 1496 1499 1501 1503 1505 1507 1508 1510 1511 1513 1514 1515 1516 1517
1472 1477 1468 1466 1467 1468 1471 1472 1477 1484 1493 1494 1481 1476 1477 1469 1466 1467 1469 1472 1475 1477 1479 1481 1482 1484 1486 1488 1490 1492 1494 1496 1498 1500 1502 1504 1505 1507 1508 1510 1511 1512 1513 1514
1472 1477 1472 1468 1470 1471 1471 1473 1475 1478 1480 1492 1495 1486 1463 1465 1466 1467 1470 1473 1476 1478 1479 1480 1482 1484 1485 1487 1488 1490 1492 1493 1495 1497 1499 1501 1502 1504 1505 1506 1508 1509 1510 1511
1472 1476 1476 1469 1464 1463 1466 1469 1474 1485 1484 1480 1487 1485 1462 1464 1466 1469 1472 1475 1476 1478 1480 1481 1482 1483 1484 1485 1487 1488 1490 1491 1492 1494 1496 1498 1499 1501 1502 1503 1504 1506 1507 1508
1476 1478 1484 1480 1474 1468 1468 1467 1469 1473 1478 1481 1486 1483 1463 1465 1467 1470 1472 1475 1477 1478 1480 1481 1482 1483 1484 1484 1485 1486 1487 1489 1490 1491 1493 1494 1496 1497 1498 1500 1501 1502 1504 1505
1479 1478 1482 1488 1480 1471 1471 1470 1470 1474 1481 1480 1477 1474 1468 1468 1470 1471 1473 1475 1476 1478 1479 1481 1482 1482 1483 1483 1484 1485 1486 1487 1488 1489 1490 1492 1493 1494 1495 1496 1497 1499 1500 1501
1478 1479 1475 1471 1468 1468 1469 1469 1469 1472 1472 1476 1473 1471 1469 1468 1470 1471 1473 1475 1476 1478 1479 1480 1481 1481 1482 1482 1483 1483 1484 1485 1485 1486 1487 1489 1490 1491 1492 1493 1494 1495 1496 1497
1475 1477 1475 1473 1468 1467 1467 1466 1466 1468 1468 1469 1469 1469 1465 1467 1469 1471 1472 1474 1476 1477 1478 1479 1479 1480 1480 1480 1481 1481 1481 1482 1483 1483 1484 1485 1486 1487 1488 1489 1490 1491 1492 1493
1475 1476 1478 1477 1468 1468 1470 1462 1463 1464 1464 1466 1470 1469 1466 1467 1469 1471 1472 1474 1475 1476 1477 1477 1478 1478 1478 1478 1479 1479 1479 1479 1480 1480 1481 1482 1483 1484 1484 1485 1486 1487 1488 1489
1476 1477 1478 1477 1475 1482 1467 1457 1457 1461 1462 1463 1465 1466 1467 1469 1470 1472 1472 1473 1473 1474 1474 1475 1476 1476 1476 1476 1477 1477 1477 1477 1477 1478 1479 1479 1480 1480 1481 1481 1482 1483 1484 1485
1473 1475 1479 1478 1479 1471 1463 1460 1460 1463 1464 1463 1465 1466 1468 1469 1469 1470 1471 1471 1471 1472 1472 1473 1474 1474 1473 1474 1474 1474 1475 1475 1475 1475 1476 1476 1476 1476 1477 1478 1478 1479 1480 1480
1469 1471 1477 1477 1481 1479 1467 1461 1460 1463 1467 1465 1465 1466 1468 1468 1471 1471 1470 1470 1470 1470 1470 1470 1471 1471 1471 1471 1471 1472 1472 1472 1472 1472 1473 1473 1473 1473 1474 1474 1475 1475 1476 1476
1471 1472 1475 1476 1476 1468 1464 1463 1463 1472 1472 1467 1466 1467 1469 1470 1471 1471 1469 1468 1468 1468 1468 1468 1468 1468 1468 1468 1468 1468 1469 1469 1469 1470 1470 1470 1470 1470 1471 1471 1471 1472 1472 1473
1468 1471 1471 1472 1476 1474 1464 1464 1468 1470 1468 1468 1468 1469 1469 1469 1469 1469 1468 1467 1466 1466 1466 1466 1465 1465 1465 1465 1466 1465 1466 1466 1467 1467 1467 1467 1467 1468 1467 1468 1468 1468 1469 1469
1462 1464 1465 1466 1469 1465 1465 1465 1467 1468 1468 1469 1469 1469 1469 1468 1468 1467 1467 1466 1465 1465 1465 1464 1463 1463 1463 1463 1463 1463 1464 1464 1464 1464 1464 1464 1464 1464 1464 1464 1464 1465 1465 1466
1460 1460 1461 1463 1462 1464 1465 1466 1467 1468 1468 1468 1468 1468 1468 1467 1466 1466 1465 1464 1463 1463 1463 1462 1461 1461 1461 1460 1461 1461 1461 1461 1461 1461 1461 1461 1461 1461 1462 1462 1462 1462 1462 1462
1463 1463 1463 1462 1462 1463 1464 1465 1466 1466 1466 1466 1466 1466 1465 1465 1464 1464 1463 1462 1461 1461 1460 1460 1459 1459 1458 1458 1458 1458 1458 1458 1458 1458 1459 1459 1458 1459 1459 1459 1459 1459 1459 1459
1462 1463 1464 1463 1462 1462 1462 1463 1464 1464 1464 1464 1464 1463 1463 1463 1462 1461 1461 1460 1459 1459 1458 1458 1457 1457 1456 1456 1456 1455 1455 1455 1455 1456 1456 1456 1456 1456 1456 1456 1456 1456 1457 1457